Flag for U.S.A. Weather past 2 weeks in Rancho Cucamonga, California, U.S.A.

Now
60 °F

Clear.


Feels Like: 60 °F
Forecast: 54 / 77 °F
Wind: 7 mph from West

Location: Ontario International Airport


UV Index: 0 (Low)

Visibility: 10 mi


Pressure: 29.84 "Hg

Humidity: 72%

Dew point: 51 °F

Location of Rancho CucamongaLocation

Historic Weather in Rancho Cucamonga

°F

Rancho Cucamonga temperature yesterday

Maximum temperature yesterday: 79 °F (at 2:53 PM)
Minimum temperature yesterday: 53 °F (at 4:53 AM)
Average temperature yesterday: 64 °F

Past Weeks' High & Low Weather Summary

 TemperatureHumidityPressure
High92 °F (Apr 8, 3:53 PM)93% (Apr 2, 3:53 AM)30.14 "Hg (Apr 2, 3:53 AM)
Low45 °F (Apr 3, 3:53 AM)3% (Apr 9, 2:53 PM)29.74 "Hg (Apr 16, 3:53 PM)
Average65 °F46%29.95 "Hg
* Reported Apr 1 10:53 PM — Apr 16 10:53 PM, Rancho Cucamonga, Weather by CustomWeather, © 2014

Note: Actual official high and low records may vary slightly from our data, if they occured in-between our weather recording intervals... More about our weather records

Advertising

Historic Weather Conditions — Data for Previous 24 hours

 ConditionsComfort  
Time TempWeatherWind HumidityBarometerVisibility
10:53 PM
Apr 16
60 °FClear.7 mph72%29.84 "Hg10 mi
9:53 PM63 °FClear.7 mph65%29.83 "Hg10 mi
8:53 PM64 °FClear.8 mph63%29.81 "Hg10 mi
7:53 PM66 °FSunny.8 mph56%29.79 "Hg10 mi
6:53 PM70 °FSunny.13 mph47%29.76 "Hg10 mi
5:53 PM73 °FSunny.12 mph44%29.75 "Hg10 mi
4:53 PM76 °FSunny.14 mph39%29.75 "Hg10 mi
3:53 PM79 °FSunny.14 mph34%29.74 "Hg10 mi
2:53 PM79 °FSunny.12 mph30%29.75 "Hg10 mi
1:53 PM78 °FSunny.9 mph32%29.76 "Hg10 mi
12:53 PM73 °FPassing clouds.6 mph33%29.78 "Hg9 mi
11:53 AM69 °FSunny.5 mph45%29.81 "Hg7 mi
10:53 AM65 °FSunny.5 mph56%29.83 "Hg5 mi
9:53 AM60 °FSunny.5 mph69%29.83 "Hg5 mi
8:53 AM57 °FHaze.6 mph78%29.85 "Hg4 mi
7:53 AM54 °FFog.3 mph86%29.84 "Hg3 mi
6:53 AM53 °FFog.6 mph89%29.83 "Hg2 mi
5:53 AM53 °FFog.3 mph93%29.82 "Hg2 mi
4:53 AM53 °FFog.7 mph93%29.81 "Hg2 mi
3:53 AM54 °FFog.5 mph90%29.81 "Hg3 mi
2:53 AM56 °FHaze.6 mph81%29.81 "Hg5 mi
1:53 AM56 °FPassing clouds.6 mph81%29.83 "Hg8 mi
12:53 AM60 °FPassing clouds.No wind65%29.84 "Hg10 mi
Weather by CustomWeather, © 2014

See weather overview